Language: 


Des rapports , des résumés tant et plus, au choix de chacun....


Données statistiques de la station
Quotidien Rapport Novembre 10, 2017 Unités:  Métrique    Anglais   les deux
« Précédent Jour
Suivant Jour »
Quotidien Hebdomadaire Mensuel Annuel Actuel
  Haut: Bas: Moyen:
Température: 13.1 °C 0.0 °C 9.6 °C
Pt de rosée: 13.0 °C 3.0 °C 8.4 °C
Humidité: 98 % 0 % 90 %
Vitesse du vent: 18.0 km/h 0.0 km/h 6.6 km/h
Rafales: 23.8 km/h - -
Vent:- - West
Pression: 1021.9 hPa 0.0 hPa -
Précipitation: 2.8 mm    
Historical Graphs
 
 
Données statistiques pour Novembre 10, 2017
Heure Température Point de rosée Pression Vent Vitesse du vent Refales Humidité Pluie (taux horaire)
00:04 9.4 °C 9.0 °C 1021.9 hPa Calm   6.1 km/h 98 % 0.3 mm
00:09 9.5 °C 10.0 °C 1021.9 hPa SSW 4.0 km/h 8.7 km/h 98 % 0.3 mm
00:14 9.5 °C 10.0 °C 1019.9 hPa SSW 5.0 km/h 10.5 km/h 98 % 0.3 mm
00:19 9.6 °C 10.0 °C 1019.9 hPa SSW 9.0 km/h 12.6 km/h 98 % 0.3 mm
00:24 9.6 °C 10.0 °C 1019.9 hPa SSW 7.9 km/h 12.6 km/h 98 % 0.3 mm
00:29 9.7 °C 10.0 °C 1020.9 hPa SW 5.8 km/h 10.1 km/h 98 % 0.3 mm
00:34 9.7 °C 10.0 °C 1020.9 hPa SW 7.9 km/h 10.1 km/h 98 % 0.3 mm
00:39 9.7 °C 10.0 °C 1020.9 hPa WSW 5.5 km/h 11.9 km/h 98 % 0.0 mm
00:44 9.8 °C 10.0 °C 1020.9 hPa WSW 7.9 km/h 11.9 km/h 98 % 0.0 mm
00:49 9.8 °C 10.0 °C 1020.9 hPa Calm   11.9 km/h 98 % 0.0 mm
00:54 9.8 °C 10.0 °C 1020.9 hPa WSW 4.7 km/h 8.7 km/h 98 % 0.0 mm
00:59 9.8 °C 10.0 °C 1020.9 hPa Calm   8.7 km/h 98 % 0.0 mm
01:04 9.8 °C 10.0 °C 1020.9 hPa West 4.3 km/h 8.7 km/h 98 % 0.0 mm
01:09 9.9 °C 10.0 °C 1020.9 hPa Calm   8.7 km/h 98 % 0.0 mm
01:14 9.9 °C 10.0 °C 1020.9 hPa Calm   8.7 km/h 98 % 0.0 mm
01:19 9.9 °C 10.0 °C 1020.9 hPa Calm   6.4 km/h 98 % 0.0 mm
01:24 9.9 °C 10.0 °C 1020.9 hPa Calm   6.1 km/h 98 % 0.0 mm
01:29 10.0 °C 10.0 °C 1020.9 hPa West 6.4 km/h 9.0 km/h 98 % 0.0 mm
01:34 10.0 °C 10.0 °C 1020.9 hPa SW 8.7 km/h 9.7 km/h 98 % 0.0 mm
01:39 10.0 °C 10.0 °C 1020.9 hPa WSW 11.6 km/h 12.6 km/h 98 % 0.0 mm
01:44 10.1 °C 10.0 °C 1019.9 hPa WSW 12.2 km/h 12.6 km/h 98 % 0.0 mm
01:49 10.1 °C 10.0 °C 1019.9 hPa WSW 7.9 km/h 12.2 km/h 98 % 0.0 mm
01:54 10.1 °C 10.0 °C 1019.9 hPa WSW 7.2 km/h 10.1 km/h 98 % 0.0 mm
01:59 10.1 °C 10.0 °C 1019.9 hPa WSW 9.0 km/h 10.1 km/h 98 % 0.0 mm
02:04 10.1 °C 10.0 °C 1019.9 hPa WSW 10.1 km/h 10.1 km/h 98 % 0.0 mm
02:10 10.1 °C 10.0 °C 1019.9 hPa Calm   10.1 km/h 98 % 0.0 mm
02:15 10.1 °C 10.0 °C 1019.9 hPa WSW 6.4 km/h 10.1 km/h 98 % 0.0 mm
02:20 10.1 °C 10.0 °C 1019.9 hPa WSW 6.9 km/h 9.7 km/h 98 % 0.0 mm
02:25 10.1 °C 10.0 °C 1019.9 hPa WSW 6.9 km/h 9.7 km/h 98 % 0.0 mm
02:30 10.1 °C 10.0 °C 1018.8 hPa WSW 10.1 km/h 10.1 km/h 98 % 0.0 mm
02:35 10.1 °C 10.0 °C 1018.8 hPa SSW 5.8 km/h 10.1 km/h 98 % 0.0 mm
02:40 10.1 °C 10.0 °C 1018.8 hPa Calm   10.1 km/h 98 % 0.0 mm
02:45 10.1 °C 10.0 °C 1018.8 hPa WSW 6.9 km/h 10.1 km/h 98 % 0.0 mm
02:50 10.1 °C 10.0 °C 1018.8 hPa SW 6.9 km/h 10.1 km/h 98 % 0.0 mm
02:55 10.1 °C 10.0 °C 1018.8 hPa SSW 6.9 km/h 10.1 km/h 98 % 0.0 mm
03:01 0.0 °C 10.0 °C 0.0 hPa Calm     0 % 0.0 mm
03:06 10.1 °C 10.0 °C 1018.8 hPa Calm   8.7 km/h 98 % 0.0 mm
03:11 10.1 °C 10.0 °C 1018.8 hPa SSW 7.6 km/h 9.0 km/h 98 % 0.0 mm
03:17 10.1 °C 10.0 °C 1018.8 hPa Calm   9.7 km/h 98 % 0.0 mm
03:22 10.1 °C 10.0 °C 1018.8 hPa Calm   10.5 km/h 98 % 0.0 mm
03:27 10.1 °C 10.0 °C 1018.8 hPa SW 6.1 km/h 10.5 km/h 98 % 0.0 mm
03:32 10.1 °C 10.0 °C 1018.8 hPa SSW 6.9 km/h 9.3 km/h 98 % 0.0 mm
03:37 10.1 °C 10.0 °C 1018.8 hPa WSW 3.2 km/h 9.3 km/h 98 % 0.0 mm
03:42 10.1 °C 10.0 °C 1018.8 hPa SSW 5.8 km/h 9.3 km/h 98 % 0.0 mm
03:47 10.2 °C 10.0 °C 1018.8 hPa Calm   7.6 km/h 98 % 0.0 mm
03:52 10.2 °C 10.0 °C 1018.8 hPa SW 5.5 km/h 7.6 km/h 98 % 0.3 mm
03:57 10.2 °C 10.0 °C 1018.2 hPa SSW 4.7 km/h 8.7 km/h 98 % 1.0 mm
04:02 10.1 °C 10.0 °C 1018.2 hPa Calm   8.7 km/h 98 % 0.8 mm
04:07 10.1 °C 10.0 °C 1018.2 hPa SSW 5.0 km/h 5.5 km/h 98 % 0.8 mm
04:12 10.1 °C 10.0 °C 1018.8 hPa Calm   6.1 km/h 98 % 0.8 mm
04:17 10.1 °C 10.0 °C 1018.8 hPa WSW 6.9 km/h 6.9 km/h 98 % 0.8 mm
04:22 10.2 °C 10.0 °C 1018.8 hPa WSW 6.9 km/h 9.0 km/h 98 % 0.8 mm
04:27 10.2 °C 10.0 °C 1018.8 hPa WSW 3.5 km/h 9.0 km/h 98 % 0.8 mm
04:32 10.2 °C 10.0 °C 1018.8 hPa Calm   6.4 km/h 98 % 0.8 mm
04:37 10.3 °C 10.0 °C 1018.8 hPa Calm   6.9 km/h 98 % 0.8 mm
04:42 10.3 °C 10.0 °C 1018.2 hPa Calm   7.9 km/h 98 % 0.8 mm
04:47 10.4 °C 10.0 °C 1018.2 hPa WSW 7.6 km/h 7.9 km/h 98 % 0.8 mm
04:52 10.4 °C 10.0 °C 1018.2 hPa West 6.1 km/h 7.9 km/h 98 % 0.5 mm
04:57 10.5 °C 11.0 °C 1018.2 hPa Calm   7.9 km/h 98 % 0.3 mm
05:03 10.5 °C 11.0 °C 1018.2 hPa West 4.0 km/h 7.6 km/h 98 % 0.3 mm
05:08 10.5 °C 11.0 °C 1018.2 hPa Calm   6.4 km/h 98 % 0.3 mm
05:13 10.5 °C 11.0 °C 1018.2 hPa WSW 6.1 km/h 6.4 km/h 98 % 0.3 mm
05:18 10.5 °C 11.0 °C 1018.2 hPa Calm   6.4 km/h 98 % 0.3 mm
05:23 10.5 °C 11.0 °C 1018.2 hPa SSW 2.1 km/h 5.8 km/h 98 % 0.3 mm
05:28 10.5 °C 11.0 °C 1018.2 hPa WSW 5.8 km/h 7.9 km/h 98 % 0.3 mm
05:33 10.5 °C 11.0 °C 1018.2 hPa Calm   7.9 km/h 98 % 0.3 mm
05:38 10.4 °C 10.0 °C 1018.2 hPa WSW 7.6 km/h 7.6 km/h 98 % 0.3 mm
05:43 10.4 °C 10.0 °C 1018.2 hPa SW 7.9 km/h 10.5 km/h 98 % 0.3 mm
05:48 10.4 °C 10.0 °C 1018.2 hPa WSW 9.0 km/h 10.5 km/h 98 % 0.3 mm
05:53 10.4 °C 10.0 °C 1018.2 hPa SW 9.3 km/h 10.8 km/h 98 % 0.3 mm
05:58 10.4 °C 10.0 °C 1016.8 hPa SW 11.1 km/h 13.7 km/h 98 % 0.0 mm
06:03 10.5 °C 11.0 °C 1016.8 hPa SW 10.1 km/h 13.7 km/h 98 % 0.0 mm
06:08 10.5 °C 11.0 °C 1016.8 hPa WSW 10.5 km/h 13.7 km/h 98 % 0.0 mm
06:13 10.5 °C 11.0 °C 1016.8 hPa SW 9.0 km/h 12.2 km/h 98 % 0.0 mm
06:18 10.5 °C 11.0 °C 1016.8 hPa WSW 6.1 km/h 12.2 km/h 98 % 0.0 mm
06:23 10.5 °C 11.0 °C 1016.8 hPa WSW 10.1 km/h 11.6 km/h 98 % 0.0 mm
06:28 10.5 °C 11.0 °C 1016.8 hPa WSW 7.9 km/h 11.6 km/h 98 % 0.0 mm
06:33 10.5 °C 11.0 °C 1016.8 hPa WSW 9.3 km/h 10.5 km/h 98 % 0.0 mm
06:38 10.5 °C 11.0 °C 1016.8 hPa WSW 8.7 km/h 10.1 km/h 98 % 0.0 mm
06:43 10.5 °C 11.0 °C 1016.1 hPa WSW 6.4 km/h 10.1 km/h 98 % 0.0 mm
06:48 10.5 °C 11.0 °C 1016.1 hPa WSW 6.1 km/h 9.3 km/h 98 % 0.0 mm
06:53 10.5 °C 11.0 °C 1016.1 hPa WSW 9.0 km/h 10.1 km/h 98 % 0.0 mm
06:59 10.5 °C 11.0 °C 1016.8 hPa WSW 7.9 km/h 10.1 km/h 98 % 0.0 mm
07:04 10.4 °C 10.0 °C 1016.8 hPa WSW 12.2 km/h 12.2 km/h 98 % 0.0 mm
07:09 10.5 °C 11.0 °C 1016.8 hPa WSW 10.1 km/h 12.2 km/h 98 % 0.3 mm
07:14 10.5 °C 11.0 °C 1016.8 hPa West 10.5 km/h 23.8 km/h 98 % 0.3 mm
07:19 10.6 °C 11.0 °C 1016.8 hPa West 16.9 km/h 23.8 km/h 98 % 0.3 mm
07:24 10.5 °C 11.0 °C 1016.8 hPa WNW 15.8 km/h 21.2 km/h 98 % 0.3 mm
07:29 10.4 °C 10.0 °C 1016.1 hPa West 17.7 km/h 21.2 km/h 98 % 0.3 mm
07:34 10.4 °C 10.0 °C 1016.1 hPa West 11.9 km/h 17.7 km/h 98 % 0.3 mm
07:39 10.3 °C 10.0 °C 1016.1 hPa West 13.0 km/h 17.7 km/h 98 % 0.3 mm
07:44 10.2 °C 10.0 °C 1016.8 hPa West 18.0 km/h 20.6 km/h 98 % 0.3 mm
07:49 10.1 °C 10.0 °C 1016.8 hPa WNW 14.8 km/h 23.8 km/h 98 % 0.3 mm
07:54 10.1 °C 10.0 °C 1016.8 hPa West 10.1 km/h 23.8 km/h 98 % 0.3 mm
07:59 9.9 °C 10.0 °C 1016.1 hPa West 6.1 km/h 17.7 km/h 98 % 0.3 mm
08:04 9.9 °C 10.0 °C 1016.1 hPa WSW 6.9 km/h 14.0 km/h 98 % 0.0 mm
08:09 9.8 °C 10.0 °C 1016.1 hPa SW 12.2 km/h 12.2 km/h 98 % 0.0 mm
08:15 9.7 °C 10.0 °C 1016.1 hPa West 13.7 km/h 15.1 km/h 98 % 0.0 mm
08:20 9.7 °C 10.0 °C 1016.1 hPa West 9.7 km/h 20.1 km/h 98 % 0.0 mm
08:25 9.6 °C 10.0 °C 1016.1 hPa West 7.9 km/h 20.1 km/h 98 % 0.0 mm
08:30 9.5 °C 10.0 °C 1018.2 hPa WSW 10.1 km/h 12.6 km/h 98 % 0.0 mm
08:35 9.4 °C 9.0 °C 1018.2 hPa WSW 9.7 km/h 14.0 km/h 98 % 0.0 mm
08:40 9.3 °C 9.0 °C 1016.8 hPa SW 10.1 km/h 14.0 km/h 98 % 0.0 mm
08:45 9.3 °C 9.0 °C 1016.8 hPa WSW 10.5 km/h 15.8 km/h 98 % 0.0 mm
08:50 9.2 °C 9.0 °C 1016.8 hPa WSW 8.7 km/h 15.8 km/h 98 % 0.0 mm
08:55 9.2 °C 9.0 °C 1016.8 hPa SSW 9.3 km/h 10.5 km/h 98 % 0.0 mm
09:00 9.2 °C 9.0 °C 1016.8 hPa West 7.9 km/h 10.1 km/h 98 % 0.3 mm
09:05 9.2 °C 9.0 °C 1016.8 hPa SW 8.7 km/h 10.5 km/h 98 % 0.3 mm
09:11 9.2 °C 9.0 °C 1016.8 hPa WSW 12.6 km/h 12.6 km/h 98 % 0.3 mm
09:16 9.2 °C 9.0 °C 1016.8 hPa WSW 6.4 km/h 12.6 km/h 98 % 0.3 mm
09:17 9.2 °C 9.0 °C 1016.8 hPa SW 7.9 km/h 12.6 km/h 98 % 0.3 mm
09:22 9.2 °C 9.0 °C 1016.8 hPa SSW 9.7 km/h 9.7 km/h 98 % 0.3 mm
09:27 9.2 °C 9.0 °C 1016.8 hPa WSW 10.1 km/h 10.1 km/h 98 % 0.5 mm
09:32 9.2 °C 9.0 °C 1016.8 hPa WSW 9.3 km/h 10.1 km/h 98 % 0.5 mm
09:37 9.3 °C 9.0 °C 1016.8 hPa WSW 9.7 km/h 10.1 km/h 98 % 0.5 mm
09:42 9.3 °C 9.0 °C 1016.8 hPa WSW 7.9 km/h 9.7 km/h 98 % 0.5 mm
09:47 9.3 °C 9.0 °C 1016.8 hPa WSW 8.7 km/h 10.1 km/h 98 % 0.5 mm
09:52 9.4 °C 9.0 °C 1016.8 hPa WSW 9.0 km/h 10.1 km/h 98 % 0.5 mm
09:57 9.4 °C 9.0 °C 1016.8 hPa WSW 7.9 km/h 10.5 km/h 98 % 0.3 mm
10:02 9.5 °C 10.0 °C 1016.8 hPa WSW 7.9 km/h 10.5 km/h 98 % 0.3 mm
10:07 9.6 °C 10.0 °C 1016.8 hPa WSW 10.1 km/h 10.1 km/h 98 % 0.5 mm
10:12 9.9 °C 10.0 °C 1016.8 hPa West 12.2 km/h 12.6 km/h 98 % 0.5 mm
10:17 10.1 °C 10.0 °C 1016.8 hPa WSW 11.9 km/h 14.0 km/h 98 % 0.5 mm
10:22 10.2 °C 10.0 °C 1016.8 hPa WSW 9.7 km/h 14.0 km/h 98 % 0.5 mm
10:27 10.3 °C 10.0 °C 1016.8 hPa West 10.5 km/h 11.9 km/h 98 % 0.3 mm
10:32 10.3 °C 10.0 °C 1016.8 hPa West 6.4 km/h 11.1 km/h 98 % 0.3 mm
10:37 10.6 °C 11.0 °C 1016.8 hPa WSW 7.9 km/h 12.6 km/h 98 % 0.3 mm
10:43 10.8 °C 11.0 °C 1016.8 hPa WSW 7.9 km/h 12.6 km/h 98 % 0.3 mm
10:48 10.9 °C 11.0 °C 1016.8 hPa WSW 9.0 km/h 11.1 km/h 98 % 0.3 mm
10:53 11.0 °C 11.0 °C 1016.8 hPa WSW 12.6 km/h 12.6 km/h 98 % 0.3 mm
10:58 11.0 °C 11.0 °C 1016.8 hPa WSW 10.1 km/h 12.6 km/h 98 % 0.3 mm
11:03 11.3 °C 11.0 °C 1016.8 hPa Calm   12.6 km/h 98 % 0.0 mm
11:08 11.4 °C 11.0 °C 1016.8 hPa WSW 9.3 km/h 11.9 km/h 98 % 0.0 mm
11:13 11.5 °C 12.0 °C 1016.8 hPa WSW 7.9 km/h 13.7 km/h 98 % 0.0 mm
11:18 11.7 °C 12.0 °C 1016.8 hPa West 10.5 km/h 13.7 km/h 98 % 0.0 mm
11:23 11.8 °C 12.0 °C 1016.8 hPa WSW 10.1 km/h 13.0 km/h 98 % 0.0 mm
11:28 11.9 °C 12.0 °C 1016.1 hPa West 9.0 km/h 11.9 km/h 98 % 0.0 mm
11:33 11.9 °C 12.0 °C 1016.1 hPa West 13.0 km/h 14.0 km/h 98 % 0.0 mm
11:39 11.9 °C 12.0 °C 1016.1 hPa West 9.7 km/h 19.5 km/h 98 % 0.0 mm
11:44 11.9 °C 12.0 °C 1016.8 hPa WSW 10.5 km/h 20.1 km/h 98 % 0.0 mm
11:49 12.0 °C 12.0 °C 1016.8 hPa West 7.6 km/h 20.1 km/h 98 % 0.0 mm
11:54 12.2 °C 12.0 °C 1016.8 hPa NW 12.6 km/h 19.1 km/h 98 % 0.0 mm
11:59 12.3 °C 13.0 °C 1016.1 hPa West 14.8 km/h 20.6 km/h 98 % 0.0 mm
12:04 12.4 °C 13.0 °C 1016.1 hPa WNW 6.1 km/h 20.6 km/h 98 % 0.0 mm
12:09 12.5 °C 13.0 °C 1016.1 hPa WNW 13.7 km/h 20.1 km/h 98 % 0.0 mm
12:14 12.5 °C 13.0 °C 1016.1 hPa WSW 6.1 km/h 20.1 km/h 98 % 0.0 mm
12:19 12.6 °C 13.0 °C 1016.1 hPa West 9.0 km/h 17.7 km/h 98 % 0.0 mm
12:24 12.5 °C 13.0 °C 1016.1 hPa West 7.6 km/h 16.3 km/h 98 % 0.0 mm
12:29 12.5 °C 13.0 °C 1016.1 hPa West 6.9 km/h 16.3 km/h 98 % 0.0 mm
12:34 12.5 °C 13.0 °C 1016.1 hPa West 9.0 km/h 13.7 km/h 98 % 0.0 mm
12:39 12.5 °C 13.0 °C 1016.1 hPa WNW 9.7 km/h 12.2 km/h 97 % 0.0 mm
12:44 12.5 °C 13.0 °C 1016.1 hPa WNW 8.7 km/h 14.0 km/h 97 % 0.0 mm
12:49 12.5 °C 13.0 °C 1016.1 hPa North 13.7 km/h 16.9 km/h 97 % 0.0 mm
12:54 12.5 °C 13.0 °C 1016.1 hPa NNW 4.7 km/h 16.9 km/h 97 % 0.0 mm
12:59 12.3 °C 12.0 °C 1016.1 hPa NW 3.2 km/h 12.6 km/h 97 % 0.0 mm
13:04 11.9 °C 12.0 °C 1016.1 hPa NW 5.8 km/h 14.0 km/h 96 % 0.0 mm
13:09 11.7 °C 11.0 °C 1016.1 hPa WNW 9.0 km/h 14.0 km/h 96 % 0.0 mm
13:14 11.7 °C 11.0 °C 1016.1 hPa NW 6.1 km/h 13.0 km/h 96 % 0.0 mm
13:19 11.7 °C 11.0 °C 1016.1 hPa NW 1.4 km/h 13.0 km/h 96 % 0.0 mm
13:24 11.8 °C 11.0 °C 1016.1 hPa NNE 13.7 km/h 13.7 km/h 96 % 0.0 mm
13:29 11.9 °C 12.0 °C 1016.8 hPa NNW 6.4 km/h 13.7 km/h 96 % 0.0 mm
13:34 12.1 °C 12.0 °C 1016.8 hPa West 10.1 km/h 10.1 km/h 96 % 0.0 mm
13:39 12.2 °C 12.0 °C 1016.8 hPa NNW 6.1 km/h 11.9 km/h 95 % 0.3 mm
13:44 12.2 °C 11.0 °C 1016.8 hPa WNW 9.0 km/h 11.9 km/h 93 % 0.3 mm
13:49 12.3 °C 12.0 °C 1016.8 hPa West 7.9 km/h 11.1 km/h 93 % 0.3 mm
13:54 12.5 °C 12.0 °C 1016.8 hPa NNW 11.9 km/h 11.9 km/h 92 % 0.3 mm
13:59 12.5 °C 12.0 °C 1016.8 hPa North 8.7 km/h 11.9 km/h 91 % 0.3 mm
14:04 12.7 °C 12.0 °C 1016.8 hPa NE 8.7 km/h 11.9 km/h 91 % 0.3 mm
14:09 12.8 °C 11.0 °C 1016.8 hPa North 4.0 km/h 9.7 km/h 87 % 0.3 mm
14:14 12.8 °C 11.0 °C 1016.8 hPa North 7.6 km/h 20.6 km/h 85 % 0.3 mm
14:19 12.8 °C 10.0 °C 1016.8 hPa NW 8.7 km/h 20.6 km/h 83 % 0.3 mm
14:24 13.0 °C 9.0 °C 1016.8 hPa NNW 9.3 km/h 19.8 km/h 77 % 0.3 mm
14:29 13.1 °C 9.0 °C 1016.8 hPa ENE 13.7 km/h 19.1 km/h 72 % 0.3 mm
14:35 12.8 °C 8.0 °C 1016.8 hPa NNW 13.0 km/h 19.1 km/h 70 % 0.3 mm
14:40 12.8 °C 8.0 °C 1016.8 hPa North 8.7 km/h 16.3 km/h 70 % 0.0 mm
14:45 12.8 °C 7.0 °C 1018.2 hPa North 11.6 km/h 21.6 km/h 67 % 0.0 mm
14:50 12.6 °C 7.0 °C 1018.2 hPa NE 11.9 km/h 21.6 km/h 67 % 0.0 mm
14:55 12.4 °C 7.0 °C 1018.2 hPa North 6.9 km/h 16.3 km/h 68 % 0.0 mm
15:00 12.0 °C 7.0 °C 1016.1 hPa WNW 11.1 km/h 18.3 km/h 69 % 0.0 mm
15:05 12.2 °C 7.0 °C 1016.1 hPa North 14.0 km/h 18.3 km/h 71 % 0.0 mm
15:10 12.1 °C 8.0 °C 1016.1 hPa West 9.7 km/h 16.6 km/h 72 % 0.0 mm
15:15 12.4 °C 8.0 °C 1016.1 hPa NNE 2.6 km/h 16.6 km/h 74 % 0.0 mm
15:20 12.3 °C 8.0 °C 1016.1 hPa NNE 16.6 km/h 16.6 km/h 74 % 0.0 mm
15:25 12.3 °C 8.0 °C 1016.1 hPa SSW 10.5 km/h 16.6 km/h 74 % 0.0 mm
15:30 12.0 °C 8.0 °C 1016.8 hPa North 1.8 km/h 16.6 km/h 73 % 0.0 mm
15:35 12.1 °C 8.0 °C 1016.8 hPa Calm   9.0 km/h 73 % 0.0 mm
15:40 11.9 °C 7.0 °C 1016.8 hPa NNW 10.5 km/h 13.7 km/h 71 % 0.0 mm
15:45 11.7 °C 6.0 °C 1016.8 hPa WNW 4.7 km/h 13.7 km/h 69 % 0.0 mm
15:50 11.6 °C 7.0 °C 1016.8 hPa NW 7.6 km/h 12.2 km/h 71 % 0.0 mm
15:55 11.4 °C 7.0 °C 1016.8 hPa WSW 6.1 km/h 7.6 km/h 72 % 0.0 mm
16:00 11.4 °C 7.0 °C 1016.8 hPa NNE 7.9 km/h 9.3 km/h 73 % 0.0 mm
16:05 11.4 °C 7.0 °C 1016.8 hPa North 10.1 km/h 10.1 km/h 72 % 0.0 mm
16:10 11.4 °C 6.0 °C 1016.8 hPa North 6.1 km/h 13.7 km/h 70 % 0.0 mm
16:15 11.3 °C 6.0 °C 1016.8 hPa NNW 4.7 km/h 13.7 km/h 68 % 0.0 mm
16:20 11.2 °C 6.0 °C 1016.8 hPa SW 6.9 km/h 6.9 km/h 68 % 0.0 mm
16:25 11.2 °C 6.0 °C 1016.8 hPa North 4.0 km/h 10.5 km/h 69 % 0.0 mm
16:30 11.1 °C 6.0 °C 1018.2 hPa Calm   10.5 km/h 68 % 0.0 mm
16:35 11.0 °C 6.0 °C 1018.2 hPa North 12.2 km/h 12.2 km/h 68 % 0.0 mm
16:40 10.9 °C 6.0 °C 1018.2 hPa NNW 15.1 km/h 15.1 km/h 69 % 0.0 mm
16:45 10.8 °C 6.0 °C 1018.2 hPa NW 10.5 km/h 15.1 km/h 70 % 0.0 mm
16:50 10.7 °C 6.0 °C 1018.2 hPa NW 1.8 km/h 15.1 km/h 71 % 0.0 mm
16:55 10.5 °C 6.0 °C 1018.2 hPa WNW 4.7 km/h 12.2 km/h 71 % 0.0 mm
17:00 10.4 °C 6.0 °C 1018.2 hPa SSW 4.0 km/h 12.2 km/h 71 % 0.0 mm
17:05 10.4 °C 6.0 °C 1018.2 hPa NW 5.8 km/h 9.0 km/h 71 % 0.0 mm
17:10 10.2 °C 6.0 °C 1018.2 hPa NNE 5.5 km/h 9.3 km/h 71 % 0.0 mm
17:15 10.1 °C 6.0 °C 1018.2 hPa West 6.4 km/h 9.3 km/h 72 % 0.0 mm
17:20 10.1 °C 6.0 °C 1018.2 hPa WNW 1.4 km/h 9.3 km/h 72 % 0.0 mm
17:25 10.0 °C 6.0 °C 1018.2 hPa WNW 5.5 km/h 9.3 km/h 73 % 0.0 mm
17:30 9.9 °C 6.0 °C 1018.2 hPa Calm   9.7 km/h 73 % 0.0 mm
17:35 9.8 °C 6.0 °C 1018.2 hPa NNW 6.4 km/h 9.7 km/h 74 % 0.0 mm
17:40 9.7 °C 6.0 °C 1018.2 hPa WNW 1.8 km/h 9.7 km/h 74 % 0.0 mm
17:45 9.7 °C 6.0 °C 1018.2 hPa WNW 5.0 km/h 9.0 km/h 75 % 0.0 mm
17:50 9.6 °C 6.0 °C 1018.2 hPa NNW 6.4 km/h 9.3 km/h 75 % 0.0 mm
17:55 9.5 °C 6.0 °C 1018.2 hPa WNW 2.6 km/h 10.5 km/h 75 % 0.0 mm
18:00 9.5 °C 6.0 °C 1018.2 hPa WSW 6.1 km/h 10.5 km/h 75 % 0.0 mm
18:05 9.5 °C 6.0 °C 1018.2 hPa NNW 9.3 km/h 10.1 km/h 75 % 0.0 mm
18:10 9.5 °C 6.0 °C 1018.8 hPa West 4.3 km/h 10.1 km/h 75 % 0.0 mm
18:15 9.3 °C 6.0 °C 1018.8 hPa WSW 6.1 km/h 9.3 km/h 75 % 0.0 mm
18:20 9.3 °C 6.0 °C 1018.8 hPa West 5.8 km/h 7.6 km/h 75 % 0.0 mm
18:25 9.2 °C 6.0 °C 1018.8 hPa West 6.1 km/h 7.6 km/h 76 % 0.0 mm
18:30 9.2 °C 6.0 °C 1018.8 hPa WNW 5.5 km/h 6.1 km/h 76 % 0.0 mm
18:36 9.1 °C 5.0 °C 1018.8 hPa NNW 4.3 km/h 7.9 km/h 76 % 0.0 mm
18:41 8.9 °C 6.0 °C 1019.9 hPa Calm   7.9 km/h 77 % 0.0 mm
18:46 8.8 °C 6.0 °C 1019.9 hPa WNW 6.1 km/h 6.1 km/h 78 % 0.0 mm
18:51 8.6 °C 5.0 °C 1019.9 hPa Calm   6.1 km/h 78 % 0.0 mm
18:56 8.4 °C 5.0 °C 1018.8 hPa WNW 5.0 km/h 6.1 km/h 79 % 0.0 mm
19:01 8.3 °C 6.0 °C 1018.8 hPa Calm   6.4 km/h 80 % 0.0 mm
19:06 8.2 °C 5.0 °C 1018.8 hPa West 2.6 km/h 6.4 km/h 81 % 0.0 mm
19:11 8.3 °C 6.0 °C 1018.8 hPa West 6.4 km/h 6.4 km/h 81 % 0.0 mm
19:16 8.3 °C 6.0 °C 1018.8 hPa NNE 5.8 km/h 6.4 km/h 82 % 0.0 mm
19:21 8.3 °C 6.0 °C 1018.8 hPa West 4.7 km/h 6.4 km/h 82 % 0.0 mm
19:26 8.4 °C 6.0 °C 1018.8 hPa West 6.4 km/h 6.4 km/h 81 % 0.0 mm
19:31 8.4 °C 6.0 °C 1018.8 hPa West 5.8 km/h 6.4 km/h 80 % 0.0 mm
19:36 8.5 °C 6.0 °C 1018.8 hPa West 7.6 km/h 10.1 km/h 79 % 0.0 mm
19:41 8.5 °C 5.0 °C 1018.8 hPa WNW 5.8 km/h 10.1 km/h 78 % 0.0 mm
19:46 8.5 °C 5.0 °C 1018.8 hPa WNW 5.8 km/h 10.1 km/h 78 % 0.0 mm
19:51 8.2 °C 5.0 °C 1018.8 hPa West 5.8 km/h 5.8 km/h 78 % 0.0 mm
19:56 8.0 °C 5.0 °C 1018.8 hPa Calm   5.8 km/h 78 % 0.0 mm
20:01 7.6 °C 4.0 °C 1018.8 hPa WSW 5.0 km/h 5.8 km/h 79 % 0.0 mm
20:06 7.4 °C 4.0 °C 1018.8 hPa West 6.9 km/h 6.9 km/h 79 % 0.0 mm
20:12 7.1 °C 4.0 °C 1018.8 hPa West 6.9 km/h 6.9 km/h 80 % 0.0 mm
20:17 6.8 °C 4.0 °C 1018.8 hPa West 6.9 km/h 6.9 km/h 81 % 0.0 mm
20:22 6.7 °C 4.0 °C 1018.8 hPa West 6.9 km/h 6.9 km/h 81 % 0.0 mm
20:27 6.2 °C 4.0 °C 1018.8 hPa WSW 5.5 km/h 5.5 km/h 82 % 0.0 mm
20:32 6.1 °C 3.0 °C 1018.8 hPa WSW 4.7 km/h 5.5 km/h 83 % 0.0 mm
20:37 6.0 °C 3.0 °C 1018.8 hPa WSW 4.7 km/h 5.5 km/h 83 % 0.0 mm
20:42 5.8 °C 4.0 °C 1018.8 hPa WSW 8.7 km/h 8.7 km/h 85 % 0.0 mm
20:47 5.8 °C 4.0 °C 1018.8 hPa WSW 8.7 km/h 8.7 km/h 86 % 0.0 mm
20:52 5.8 °C 4.0 °C 1018.8 hPa WSW 7.9 km/h 9.0 km/h 86 % 0.0 mm
20:57 5.6 °C 4.0 °C 1018.8 hPa WSW 5.8 km/h 9.0 km/h 86 % 0.0 mm
21:02 5.5 °C 4.0 °C 1018.8 hPa Calm   9.0 km/h 86 % 0.0 mm
21:07 5.4 °C 3.0 °C 1018.8 hPa West 6.1 km/h 6.9 km/h 86 % 0.0 mm
21:12 5.3 °C 4.0 °C 1018.8 hPa West 5.8 km/h 6.9 km/h 87 % 0.0 mm
21:17 5.3 °C 4.0 °C 1018.8 hPa Calm   5.8 km/h 87 % 0.0 mm
21:22 5.1 °C 3.0 °C 1018.8 hPa Calm   5.8 km/h 87 % 0.0 mm
21:27 4.9 °C 3.0 °C 1018.2 hPa Calm   6.1 km/h 87 % 0.0 mm
21:32 4.8 °C 3.0 °C 1018.2 hPa Calm   6.1 km/h 87 % 0.0 mm
21:37 4.7 °C 3.0 °C 1018.2 hPa Calm   6.1 km/h 87 % 0.0 mm
21:42 4.8 °C 3.0 °C 1018.8 hPa Calm   6.4 km/h 88 % 0.0 mm
21:47 4.8 °C 3.0 °C 1018.8 hPa Calm   6.4 km/h 88 % 0.0 mm
21:52 4.7 °C 3.0 °C 1018.8 hPa Calm     88 % 0.0 mm
21:57 4.5 °C 3.0 °C 1018.8 hPa Calm     88 % 0.0 mm
22:02 4.4 °C 3.0 °C 1018.8 hPa Calm     88 % 0.0 mm
22:07 4.5 °C 3.0 °C 1018.8 hPa Calm   3.5 km/h 89 % 0.0 mm
22:12 4.6 °C 3.0 °C 1018.8 hPa Calm   3.5 km/h 89 % 0.0 mm
22:14 4.6 °C 3.0 °C 1018.8 hPa Calm     89 % 0.0 mm
22:20 4.7 °C 3.0 °C 1018.8 hPa WSW 6.4 km/h 6.4 km/h 89 % 0.0 mm
22:25 4.8 °C 3.0 °C 1018.8 hPa West 6.4 km/h 6.4 km/h 90 % 0.0 mm
22:30 4.8 °C 3.0 °C 1018.8 hPa Calm   6.4 km/h 90 % 0.0 mm
22:35 5.1 °C 4.0 °C 1018.8 hPa West 6.9 km/h 6.9 km/h 89 % 0.0 mm
22:40 5.2 °C 4.0 °C 1018.8 hPa Calm   6.9 km/h 89 % 0.0 mm
22:45 5.4 °C 4.0 °C 1018.8 hPa Calm   6.9 km/h 89 % 0.0 mm
22:50 5.4 °C 4.0 °C 1018.8 hPa West 6.4 km/h 6.9 km/h 89 % 0.0 mm
22:55 5.6 °C 4.0 °C 1018.8 hPa West 6.4 km/h 8.7 km/h 89 % 0.0 mm
23:00 5.7 °C 4.0 °C 1018.8 hPa West 6.4 km/h 8.7 km/h 89 % 0.0 mm
23:05 5.8 °C 5.0 °C 1018.8 hPa West 8.7 km/h 8.7 km/h 89 % 0.0 mm
23:10 5.8 °C 4.0 °C 1018.2 hPa West 8.7 km/h 8.7 km/h 88 % 0.0 mm
23:15 5.8 °C 4.0 °C 1018.2 hPa West 8.7 km/h 8.7 km/h 88 % 0.0 mm
23:20 5.8 °C 4.0 °C 1018.2 hPa West 8.7 km/h 8.7 km/h 88 % 0.0 mm
23:25 5.8 °C 4.0 °C 1018.2 hPa Calm   8.7 km/h 88 % 0.0 mm
23:31 5.7 °C 4.0 °C 1018.2 hPa West 7.6 km/h 8.7 km/h 88 % 0.0 mm
23:36 5.8 °C 4.0 °C 1018.2 hPa West 7.6 km/h 8.7 km/h 88 % 0.0 mm
23:41 5.7 °C 4.0 °C 1018.8 hPa West 7.6 km/h 7.6 km/h 88 % 0.0 mm
23:46 5.7 °C 4.0 °C 1018.8 hPa West 7.6 km/h 7.6 km/h 88 % 0.0 mm
23:51 5.7 °C 4.0 °C 1018.8 hPa West 7.6 km/h 7.6 km/h 88 % 0.0 mm
23:56 5.7 °C 4.0 °C 1018.2 hPa West 7.6 km/h 7.6 km/h 88 % 0.0 mm
Le Gheer Warneton
Courtoisie de Weather Underground - 2.5 mb

Mise a jour : 17/12/2017 22:26:11
Généré par Cumulus 1.9.4 (1099)